Regional Weather Roundup
Issued by NWS

Home | Current Version | Previous Version | Graphics & Text | Print | Product List | Glossary On
Versions: 1 2 3 4 5 6 7 8 9 10 11 12 13 14 15 16 17 18 19 20 21 22 23 24 25 26 27 28 29 30 31 32 33 34 35 36 37 38 39 40 41 42 43 44 45 46 47 48 49 50
000
ASUS43 KLOT 300408
RWRIL

ILLINOIS REGIONAL WEATHER ROUNDUP
NATIONAL WEATHER SERVICE CHICAGO/ROMEOVILLE IL
1100 PM CDT SAT APR 29 2017

NOTE: "FAIR" INDICATES FEW OR NO CLOUDS BELOW 12,000 FEET WITH NO
SIGNIFICANT WEATHER AND/OR OBSTRUCTIONS TO VISIBILITY.

* THESE STATIONS ARE NOT UNDER NWS QUALITY CONTROL. THEY ALSO MAY NOT
  REPORT WEATHER SUCH AS PRECIPITATION OR FOG.

ILZ001-002-007-009-015-016-024-300500-
NORTHWEST ILLINOIS

CITY           SKY/WX    TMP DP  RH WIND       PRES   REMARKS
MOLINE         CLOUDY    42  39  89 NE16      29.99R FOG
STERLING*      LGT RAIN  42  40  92 NE14      30.00F
SAVANNA*       LGT RAIN  41  38  91 NE16      30.03F
$$

ILZ003-004-008-010-011-017-018-300500-
NORTH CENTRAL ILLINOIS

CITY           SKY/WX    TMP DP  RH WIND       PRES   REMARKS
ROCKFORD       LGT RAIN  43  40  89 NE12      30.08R FOG
FREEPORT*      LGT RAIN  39  38  94 E15       30.08R WCI  31
ROCHELLE*      LGT RAIN  43  42  97 NE16      30.02F
DE KALB*       LGT RAIN  44  42  94 NE20G25   30.01F
PERU*          CLOUDY    44  42  93 NE20G28   29.96F
$$

ILZ005-006-012>014-019>023-300500-
NORTHEAST ILLINOIS

CITY           SKY/WX    TMP DP  RH WIND       PRES   REMARKS
CHICAGO-OHARE  LGT RAIN  45  42  89 NE24G35   30.00R FOG
CHICAGO-MIDWAY LGT RAIN  45  43  93 NE26G35   29.99F FOG
AURORA         CLOUDY    47  43  86 NE22G33   29.98S
LANSING*       RAIN      47  47 100 NE6       29.97F
JOLIET*        DRIZZLE   46  46  97 NE12G25   29.96F
WAUKEGAN       RAIN      43  43 100 E21G29    30.04R FOG
DUPAGE AIRPORT LGT RAIN  45  44  97 NE25G36   29.97R FOG
KANKAKEE*      DRIZZLE   49  48  99 NE7       29.93
WHEELING       RAIN      43  43 100 NE21G33   30.04R FOG
MORRIS*        CLOUDY    46  44  94 E12G20    29.94F
ROMEOVILLE*    DRIZZLE   45  45 100 E25G32    29.95F
NORTHERLY ISL    N/A     44  43  96 NE20        N/A
$$

LMZ740>746-300500-
SOUTHERN LAKE MICHIGAN

STATION/POSITION SKY/WX   TEMP    WIND        PRES    VSBY  WAVE
                          AIR SEA DIR/SP/G                  HT/PER
                          (F)     (DEG/KT/KT) (MB)    (MI)  (FT/S)
SOUTHERN BUOY              44 41   50/ 25/ 31 1017.6          5/ 7
HARRISON CRIB              45      50/ 23/ 27   N/A
BURNHAM HARBOR             44      30/ 18/ 26   N/A
CALUMET HARBOR             46      20/ 14/ 19 1015.1F
BURNS HARBOR               49      80/ 16/ 20 1014.9R
MICHIGAN CITY              48      70/ 11/ 21   N/A
MICHIGAN CITY 6N           48 47                N/A           7/ 7
ST. JOSEPH                 48 48  120/ 19/ 31 1015.4          5/ 6
$$

ILZ025>027-034>036-040-047-049-050-058-095>099-300500-
WEST-CENTRAL ILLINOIS

CITY           SKY/WX    TMP DP  RH WIND       PRES   REMARKS
QUINCY         LGT RAIN  45  44  97 NE14      29.89S
GALESBURG*     CLOUDY    42  42  99 NE13G18   29.94F
MACOMB*        CLOUDY    44  43  99 NE16      29.94F
JACKSONVILLE*  LGT RAIN  44  43  97 NE9       29.88R
PITTSFIELD*    LGT RAIN  45  44  98 NE10      29.88F
$$

ILZ028>032-037-038-041>044-048-051>054-059>061-300500-
CENTRAL ILLINOIS

CITY           SKY/WX    TMP DP  RH WIND       PRES   REMARKS
PONTIAC        CLOUDY    47  46  98 NE25G33   29.91F
BLOOMINGTON    LGT RAIN  45  45 100 NE13      29.88
DECATUR        LGT RAIN  51  51 100 S6        29.87F
PEORIA         CLOUDY    45  44  97 NE10      29.91F
LACON*         CLOUDY    45  43  94 NE8G20    29.93F
LINCOLN*       LGT RAIN  47  47  99 NE10      29.85F
SPRINGFIELD    LGT RAIN  47  46  97 NE7       29.87F
TAYLORVILLE    LGT RAIN  48  47  99 SE5       29.89S
$$

ILZ033-039-045-046-055>057-062-063-300500-
EAST-CENTRAL ILLINOIS

CITY           SKY/WX    TMP DP  RH WIND       PRES   REMARKS
CHAMPAIGN      LGT RAIN  59  58  96 S7        29.86F
RANTOUL*       LGT RAIN  61  60  97 S7        29.88S
MATTOON        LGT RAIN  60  60 100 CALM      29.89S
PARIS*         LGT RAIN N/A N/A N/A SE5       29.89F
$$

ILZ079-100>102-300500-
SOUTHWEST ILLINOIS

CITY           SKY/WX    TMP DP  RH WIND       PRES   REMARKS
ALTON          RAIN      52  52  98 E8        29.83F
BELLEVILLE     LGT RAIN  56  56 100 E7        29.84F
CAHOKIA*       RAIN      55  53  93 S6        29.83F
SPARTA*        LGT RAIN  63  63 100 E10       29.87F
$$

ILZ064>066-069>071-074>076-080>082-084>086-088>090-092>094-300500-
SOUTH-CENTRAL ILLINOIS

CITY           SKY/WX    TMP DP  RH WIND       PRES   REMARKS
CARBONDALE     LGT RAIN  63  63 100 SE8       29.90F
CAIRO*         TSTM      64  64  99 SW3       29.97R
EFFINGHAM*     LGT RAIN  63  63 100 S3        29.91F
MARION         TSTM      64  64 100 E6        29.92F
MT. VERNON     RAIN      63  63 100 SW3       29.92R
CENTRALIA*     RAIN      64  64 100 S6        29.90F
SALEM*         RAIN      64  63  95 CALM      29.89F
METROPOLIS*    TSTM      70  64  80 SW22G30   29.93R
$$

ILZ067-068-072-073-078-083-087-091-300500-
SOUTHEAST ILLINOIS

CITY           SKY/WX    TMP DP  RH WIND       PRES   REMARKS
LAWRENCEVILLE  CLOUDY    65  64  97 S7        29.93R
FLORA*         CLOUDY    64  64  97 SE9       29.91F
FAIRFIELD*     RAIN      64  64 100 CALM      29.90F
HARRISBURG*    CLOUDY    64  64  99 S5        29.93S
ROBINSON*      CLOUDY    63  62  98 S3        29.93R
CARMI*         CLOUDY    65  64  97 CALM      29.91F
$$

ABBREVIATIONS USED IN REMARKS
   TC - TEMPERATURE IN CELSIUS
  WCI - WIND CHILL INDEX
   HX - HEAT INDEX
  VSB - VISIBILITY
$$





USA.gov is the U.S. government's official web portal to all federal, state and local government web resources and services.